Location: *
(30.0216°S, 148.7744°W)
Time: 13:33:18
(UTC+00:00)

Yuri Rocket - Pass Details

Date: 23 November 2025
Orbit: 567 x 1899 km, 28.2° (Epoch: 10 December)

Event Time Altitude Azimuth Distance (km) Brightness Sun altitude
Rises 14:02:12 0° 351° (N) 3,944 6.8 -9.5°
Reaches altitude 10° 14:06:58 10° 18° (NNE) 3,313 6.7 -8.7°
Maximum altitude 14:10:15 13° 41° (NE) 3,319 6.9 -8.0°
Drops below altitude 10° 14:13:50 10° 63° (ENE) 3,727 7.5 -7.4°
Sets 14:20:01 0° 88° (E) 5,005 8.9 -6.2°
